Weather History for K8D3 - December, 2013

Change the Weather History Date:

Friday, December 6, 2013

  Actual Average Record
Temperature  
Mean Temperature -6 °F 20 °F  
Max Temperature -1 °F 29 °F 70 °F (1939)
Min Temperature -11 °F 11 °F -22 °F (1972)
Degree Days  
Heating Degree Days 71 45  
Month to date heating degree days 297 264  
Since 1 July heating degree days 2129 2115  
Cooling Degree Days 0 0  
Month to date cooling degree days 0 0  
Year to date cooling degree days 625 527  
Moisture  
Dew Point -13 °F    
Average Humidity 69    
Maximum Humidity 79    
Minimum Humidity 58    
Precipitation  
Precipitation 0.00 in 0.02 in 0.36 in (1951)
Month to date precipitation 0.52 0.11  
Year to date precipitation 27.95 22.05  
Snow  
Snow 0.00 in - - ()
Month to date snowfall 4.4  
Since 1 July snowfall 5.4  
Snow Depth 3.00 in    
Sea Level Pressure  
Sea Level Pressure 30.67 in    
Wind  
Wind Speed 11 mph (NW)    
Max Wind Speed 20 mph    
Max Gust Speed 23 mph    
T = Trace of Precipitation, MM = Missing Value Source: NWS Daily Summary

Daily Weather History Graph

Daily Weather History Graph

Search for Another Location

Airport or City:

Trip Planner

Search our weather history database for the weather conditions in past years. The results will help you decide how hot, cold, wet, or windy it might be!

Date:

Astronomy

Dec. 06, 2013 Rise Set
Actual Time 7:54 AM CST 4:44 PM CST
Civil Twilight 7:20 AM CST 5:18 PM CST
Nautical Twilight 6:42 AM CST 5:55 PM CST
Astronomical Twilight 6:06 AM CST 6:31 PM CST
Moon 10:53 AM CST (12/6) 9:25 PM CST (12/6)
Length of Visible Light 9h 57m
Length of Day
8h 50m
Waxing Crescent, 19% of the Moon is Illuminated
Dec 6
Waxing Crescent
Dec 9
First Quarter
Dec 17
Full
Dec 25
Last Quarter
Jan 1
New

Hourly Weather History & Observations

Time (CST) Temp. Windchill Dew Point Humidity Pressure Visibility Wind Dir Wind Speed Gust Speed Precip Events Conditions
12:56 AM -4.0 °F -22.1 °F -11.0 °F 72% 30.50 in - NW 11.5 mph - N/A   Unknown
1:56 AM -5.1 °F -24.3 °F -11.9 °F 72% 30.52 in - NW 12.7 mph - N/A   Unknown
2:56 AM -5.1 °F -25.9 °F -11.9 °F 72% 30.53 in - NW 15.0 mph - N/A   Unknown
3:56 AM -6.0 °F -28.4 °F -13.0 °F 72% 30.53 in - NW 17.3 mph - N/A   Unknown
4:56 AM -7.1 °F -26.8 °F -14.1 °F 72% 30.56 in - NW 12.7 mph - N/A   Unknown
5:56 AM -7.1 °F -26.8 °F -14.1 °F 72% 30.58 in - NW 12.7 mph - N/A   Unknown
6:56 AM -7.1 °F -27.6 °F -15.0 °F 68% 30.60 in - NW 13.8 mph - N/A   Unknown
7:56 AM -9.0 °F -27.4 °F -16.1 °F 71% 30.63 in - NW 10.4 mph - N/A   Unknown
8:56 AM -7.1 °F -25.9 °F -15.0 °F 68% 30.65 in - NNW 11.5 mph - N/A   Unknown
9:56 AM -5.1 °F -22.5 °F -13.0 °F 69% 30.67 in - NNW 10.4 mph - N/A   Unknown
10:56 AM -2.9 °F -21.6 °F -13.0 °F 62% 30.69 in - NW 12.7 mph - N/A   Unknown
11:56 AM -2.9 °F -20.8 °F -11.9 °F 65% 30.69 in - WNW 11.5 mph - N/A   Unknown
12:56 PM -2.0 °F -21.9 °F -11.0 °F 66% 30.67 in - NW 15.0 mph - N/A   Unknown
1:56 PM -0.9 °F -21.2 °F -9.9 °F 66% 30.66 in - NW 16.1 mph - N/A   Unknown
2:56 PM -0.9 °F -20.6 °F -9.9 °F 66% 30.67 in - NW 15.0 mph - N/A   Unknown
3:56 PM -0.9 °F -17.4 °F -9.9 °F 66% 30.69 in - NW 10.4 mph - N/A   Unknown
4:56 PM -5.1 °F -20.4 °F -11.9 °F 72% 30.71 in - NNW 8.1 mph - N/A   Unknown
5:56 PM -7.1 °F -18.1 °F -13.0 °F 75% 30.74 in - NNW 4.6 mph - N/A   Unknown
6:56 PM -8.0 °F -19.2 °F -14.1 °F 75% 30.75 in - NNW 4.6 mph - N/A   Unknown
7:56 PM -7.1 °F -15.9 °F -13.0 °F 75% 30.76 in - NW 3.5 mph - N/A   Unknown
8:56 PM -9.0 °F -18.2 °F -15.0 °F 75% 30.78 in - NNW 3.5 mph - N/A   Unknown
9:56 PM -9.9 °F -24.9 °F -16.1 °F 74% 30.79 in - WNW 6.9 mph - N/A   Unknown
10:56 PM -9.9 °F -21.5 °F -16.1 °F 74% 30.79 in - WNW 4.6 mph - N/A   Unknown
11:56 PM -9.9 °F -27.5 °F -17.0 °F 71% 30.81 in - West 9.2 mph - N/A   Unknown